Vancouver, WA
on Tuesday, December 11, 2012

Tuesday
Previous Day Next Day
Daily Summary
 ActualAverageRecord
Temperature
Mean Temperature °F 41°F  
Max Temperature 47°F 47°F 60°F (1955)
Min Temperature 40°F 35°F 1°F (1919)
Degree Days
Heating Degree Days 21    
Month to date heating degree days 205  
Since 1 July heating degree days 1027  
Cooling Degree Days 0    
Month to date cooling degree days 0  
Year to date cooling degree days 398  
Moisture
Dew Point 41°F   
Average Humidity 87    
Maximum Humidity 92    
Minimum Humidity 82    
Precipitation
Precipitation 0.14 in 0.22 in 1.45 in (1946)
Month to date precipitation 2.59 2.24  
Year to date precipitation 40.91 34.61  
Snow
Snow 0.00 in in in ()
Month to date snowfall 0.0  
Since 1 July snowfall 0.0  
Snow Depth 0.00 in   
Wind
Wind Speed 5 mph   
Max Wind Speed 13 mph   
Max Gust Speed 23 mph   
Visibility 10 miles   
Events Rain   

Key: T is trace of precipitation, MM is missing value
Source: NWS Daily Summary
Time(PST)TemperatureDew PointHumidity Pressure Visibility Wind DirectionWind SpeedGust SpeedPrecipitationEvents Conditions
12:53 AM 46.0°F 43.0°F 89% 30.11 in 10.0 miles Calm Calm - N/A   Overcast
1:14 AM 46.4°F 42.8°F 87% 30.08 in 10.0 miles Calm Calm - N/A   Overcast
1:44 AM 46.4°F 42.8°F 87% 30.07 in 10.0 miles ESE 4.6 mph - N/A   Overcast
1:53 AM 45.0°F 42.1°F 90% 30.06 in 10.0 miles East 4.6 mph - N/A   Overcast
2:53 AM 45.0°F 39.9°F 82% 30.02 in 10.0 miles ESE 5.8 mph - N/A   Overcast
3:53 AM 44.1°F 39.0°F 82% 29.99 in 10.0 miles ESE 5.8 mph - N/A   Overcast
4:53 AM 44.1°F 39.0°F 82% 29.94 in 10.0 miles ESE 8.1 mph - N/A   Overcast
5:53 AM 44.1°F 39.9°F 85% 29.91 in 10.0 miles ESE 5.8 mph - N/A   Overcast
6:53 AM 45.0°F 41.0°F 86% 29.89 in 10.0 miles ESE 5.8 mph - N/A   Overcast
7:18 AM 44.6°F 41.0°F 87% 29.88 in 10.0 miles ESE 4.6 mph - N/A   Overcast
7:34 AM 46.4°F 41.0°F 81% 29.88 in 10.0 miles ESE 6.9 mph - N/A   Overcast
7:53 AM 45.0°F 41.0°F 86% 29.87 in 10.0 miles ESE 5.8 mph - N/A   Overcast
8:17 AM 46.4°F 41.0°F 81% 29.88 in 10.0 miles East 4.6 mph - N/A   Overcast
8:53 AM 46.0°F 41.0°F 83% 29.87 in 10.0 miles ESE 4.6 mph - N/A   Overcast
9:53 AM 46.0°F 41.0°F 83% 29.82 in 10.0 miles ESE 9.2 mph - N/A   Overcast
10:08 AM 46.4°F 41.0°F 81% 29.81 in 10.0 miles SSE 5.8 mph - N/A   Overcast
10:36 AM 46.4°F 41.0°F 81% 29.80 in 10.0 miles South 6.9 mph - N/A   Overcast
10:53 AM 46.9°F 41.0°F 80% 29.80 in 10.0 miles South 4.6 mph - N/A   Overcast
11:53 AM 46.0°F 41.0°F 83% 29.76 in 10.0 miles South 6.9 mph - 0.01 in Rain Light Rain
12:20 PM 46.4°F 41.0°F 81% 29.75 in 8.0 miles SSW 8.1 mph - 0.01 in Rain Light Rain
12:53 PM 46.0°F 41.0°F 83% 29.73 in 10.0 miles South 8.1 mph - 0.04 in Rain Light Rain
1:01 PM 46.4°F 41.0°F 81% 29.72 in 9.0 miles South 10.4 mph 18.4 mph 0.01 in Rain Light Rain
1:53 PM 46.0°F 41.0°F 83% 29.70 in 10.0 miles South 10.4 mph 18.4 mph 0.04 in Rain Light Rain
2:53 PM 45.0°F 41.0°F 86% 29.67 in 10.0 miles SSE 8.1 mph - 0.04 in Rain Light Rain
3:53 PM 45.0°F 39.9°F 82% 29.65 in 10.0 miles SSE 4.6 mph - 0.00 in   Overcast
4:53 PM 45.0°F 39.0°F 80% 29.64 in 10.0 miles South 6.9 mph - 0.00 in Rain Light Rain
5:53 PM 45.0°F 39.9°F 82% 29.64 in 10.0 miles Calm Calm - 0.00 in   Overcast
6:24 PM 44.6°F 39.2°F 81% 29.63 in 10.0 miles SSE 3.5 mph - 0.00 in Rain Light Rain
6:53 PM 45.0°F 41.0°F 86% 29.63 in 10.0 miles South 4.6 mph - 0.01 in Rain Light Rain
7:34 PM 44.6°F 41.0°F 87% 29.63 in 10.0 miles SW 3.5 mph - 0.00 in   Overcast
7:53 PM 45.0°F 41.0°F 86% 29.63 in 10.0 miles Calm Calm - 0.00 in   Overcast
8:13 PM 44.6°F 41.0°F 87% 29.64 in 10.0 miles Calm Calm - N/A   Overcast
8:22 PM 44.6°F 41.0°F 87% 29.64 in 10.0 miles Calm Calm - N/A   Overcast
8:31 PM 44.6°F 42.8°F 93% 29.64 in 10.0 miles SW 3.5 mph - N/A   Overcast
8:45 PM 44.6°F 41.0°F 87% 29.64 in 10.0 miles WSW 3.5 mph - N/A   Overcast
8:53 PM 45.0°F 42.1°F 90% 29.65 in 10.0 miles WSW 4.6 mph - N/A   Overcast
9:53 PM 45.0°F 42.1°F 90% 29.66 in 10.0 miles WSW 3.5 mph - 0.00 in   Overcast
10:53 PM 43.0°F 39.9°F 89% 29.68 in 10.0 miles Calm Calm - N/A   Partly Cloudy
11:53 PM 44.1°F 41.0°F 89% 29.70 in 10.0 miles Calm Calm - N/A   Mostly Cloudy
Moon Phase
Dec. 11 Dec. 13 Dec. 20 Dec. 28 Jan. 04
Sunrise:07:41 AM (PST) Moon Rise:05:40 AM (PST)12/11
Sunset:04:26 PM (PST) Moon Set:03:12 PM (PST)12/11

Copyright © 2014 The Weather Underground, Inc.